ASA569 KMSY-KSEA

Flight info

Callsign ASA569
Flight time N/A
Altitude 32000
Route AEX KF30C TOTOE KD60U OCS KU84M PDT CHINS5
Aircraft B739/M-SDE2E3FGHIRWXY/LB1

Departure

Time N/A
Airport Louis Armstrong New Orleans International Airport (KMSY)

Arrival

Time 2026-05-04 01:48
Airport Seattle–Tacoma International Airport (KSEA)
Time Latitude Longitude Altitude Speed Heading
2026-05-03 23:41 39.99211 -105.98542 34003 ft 423 kts 303°
2026-05-03 23:42 40.02627 -106.04782 34007 ft 423 kts 303°
2026-05-03 23:42 40.06081 -106.11025 33983 ft 424 kts 303°
2026-05-03 23:43 40.09526 -106.17263 33978 ft 424 kts 303°
2026-05-03 23:43 40.12965 -106.23511 33946 ft 423 kts 303°
2026-05-03 23:44 40.16375 -106.29725 33953 ft 423 kts 303°
2026-05-03 23:44 40.19795 -106.35972 33937 ft 422 kts 303°
2026-05-03 23:45 40.23227 -106.42252 33931 ft 421 kts 303°
2026-05-03 23:45 40.26608 -106.48451 33931 ft 421 kts 303°
2026-05-03 23:46 40.30006 -106.54695 33949 ft 420 kts 303°
2026-05-03 23:46 40.33396 -106.60936 33960 ft 420 kts 303°
2026-05-03 23:47 40.36782 -106.67181 33997 ft 420 kts 303°
2026-05-03 23:47 40.40166 -106.73436 34011 ft 421 kts 303°
2026-05-03 23:48 40.43560 -106.79723 34045 ft 423 kts 303°
2026-05-03 23:48 40.46965 -106.86043 34027 ft 424 kts 303°
2026-05-03 23:49 40.50372 -106.92378 33989 ft 425 kts 303°
2026-05-03 23:49 40.53788 -106.98742 34010 ft 427 kts 303°
2026-05-03 23:50 40.56653 -107.04091 34021 ft 428 kts 303°
2026-05-03 23:50 40.60636 -107.11542 34028 ft 428 kts 303°
2026-05-03 23:51 40.64061 -107.17963 34028 ft 430 kts 303°
2026-05-03 23:51 40.67500 -107.24422 34001 ft 431 kts 303°
2026-05-03 23:52 40.70936 -107.30892 33974 ft 431 kts 303°
2026-05-03 23:52 40.74367 -107.37363 33947 ft 430 kts 303°
2026-05-03 23:53 40.77787 -107.43829 33928 ft 429 kts 303°
2026-05-03 23:53 40.81194 -107.50282 33976 ft 429 kts 302°
2026-05-03 23:54 40.84574 -107.56699 33995 ft 428 kts 303°
2026-05-03 23:54 40.87967 -107.63155 33992 ft 427 kts 302°
2026-05-03 23:55 40.91351 -107.69605 33983 ft 426 kts 302°
2026-05-03 23:55 40.94725 -107.76050 33954 ft 426 kts 302°
2026-05-03 23:56 40.98092 -107.82496 33879 ft 426 kts 302°
2026-05-03 23:56 41.01457 -107.88951 33899 ft 426 kts 302°
2026-05-03 23:57 41.04826 -107.95427 33879 ft 427 kts 302°
2026-05-03 23:57 41.08195 -108.01916 33874 ft 428 kts 302°
2026-05-03 23:58 41.11568 -108.08428 33880 ft 429 kts 302°
2026-05-03 23:58 41.14944 -108.14959 33875 ft 430 kts 302°
2026-05-03 23:59 41.18320 -108.21504 33887 ft 430 kts 302°
2026-05-03 23:59 41.21693 -108.28056 33881 ft 429 kts 302°
2026-05-04 00:00 41.25056 -108.34602 33876 ft 428 kts 302°
2026-05-04 00:00 41.28402 -108.41131 33871 ft 427 kts 302°
2026-05-04 00:01 41.31740 -108.47658 33870 ft 426 kts 302°
2026-05-04 00:01 41.35069 -108.54180 33877 ft 426 kts 302°
2026-05-04 00:02 41.38392 -108.60705 33882 ft 426 kts 302°
2026-05-04 00:02 41.41712 -108.67239 33883 ft 426 kts 302°
2026-05-04 00:03 41.45032 -108.73787 33889 ft 427 kts 302°
2026-05-04 00:03 41.48353 -108.80350 33887 ft 427 kts 302°
2026-05-04 00:04 41.51655 -108.86889 33985 ft 428 kts 302°
2026-05-04 00:04 41.54979 -108.93487 34011 ft 428 kts 302°
2026-05-04 00:05 41.58322 -109.00134 34013 ft 429 kts 302°
2026-05-04 00:05 41.61670 -109.06671 34022 ft 429 kts 303°
2026-05-04 00:06 41.65105 -109.13199 34015 ft 429 kts 303°
2026-05-04 00:06 41.68534 -109.19725 33993 ft 428 kts 303°
2026-05-04 00:07 41.71945 -109.26255 33958 ft 428 kts 303°
2026-05-04 00:07 41.75342 -109.32784 33927 ft 427 kts 303°
2026-05-04 00:08 41.78178 -109.38250 33916 ft 426 kts 303°
2026-05-04 00:08 41.81555 -109.44770 33865 ft 425 kts 303°
2026-05-04 00:09 41.84923 -109.51289 33862 ft 425 kts 302°
2026-05-04 00:09 41.88284 -109.57806 33868 ft 424 kts 302°
2026-05-04 00:10 41.91618 -109.64287 33871 ft 425 kts 302°
2026-05-04 00:10 41.94996 -109.70866 33874 ft 425 kts 302°
2026-05-04 00:11 41.98345 -109.77402 33869 ft 425 kts 302°
2026-05-04 00:11 42.01692 -109.83949 33861 ft 425 kts 302°
2026-05-04 00:12 42.05015 -109.90461 33875 ft 425 kts 302°
2026-05-04 00:12 42.08361 -109.97036 33898 ft 426 kts 302°
2026-05-04 00:13 42.11711 -110.03630 33887 ft 427 kts 302°
2026-05-04 00:13 42.15057 -110.10234 33893 ft 427 kts 302°
2026-05-04 00:14 42.18407 -110.16857 33887 ft 428 kts 302°
2026-05-04 00:14 42.21755 -110.23492 33924 ft 428 kts 302°
2026-05-04 00:15 42.25101 -110.30137 33913 ft 428 kts 302°
2026-05-04 00:15 42.28443 -110.36790 33929 ft 428 kts 302°
2026-05-04 00:16 42.31780 -110.43446 33933 ft 427 kts 302°
2026-05-04 00:16 42.35103 -110.50091 33925 ft 427 kts 302°
2026-05-04 00:17 42.38432 -110.56760 33936 ft 427 kts 302°
2026-05-04 00:17 42.41743 -110.63410 33949 ft 426 kts 302°
2026-05-04 00:18 42.45049 -110.70063 33975 ft 426 kts 302°
2026-05-04 00:18 42.48356 -110.76735 33976 ft 427 kts 302°
2026-05-04 00:19 42.51665 -110.83427 33982 ft 427 kts 302°
2026-05-04 00:19 42.54970 -110.90121 34004 ft 427 kts 302°
2026-05-04 00:20 42.58250 -110.96781 34009 ft 427 kts 302°
2026-05-04 00:20 42.61544 -111.03487 34015 ft 427 kts 302°
2026-05-04 00:21 42.64834 -111.10198 34017 ft 427 kts 302°
2026-05-04 00:21 42.68121 -111.16917 33980 ft 427 kts 302°
2026-05-04 00:22 42.71405 -111.23647 33976 ft 427 kts 302°
2026-05-04 00:22 42.74681 -111.30375 33975 ft 427 kts 302°
2026-05-04 00:23 42.77954 -111.37112 33939 ft 427 kts 302°
2026-05-04 00:23 42.81229 -111.43869 33927 ft 428 kts 302°
2026-05-04 00:24 42.84502 -111.50635 33929 ft 427 kts 302°
2026-05-04 00:24 42.87770 -111.57408 33924 ft 428 kts 302°
2026-05-04 00:25 42.91036 -111.64192 33936 ft 428 kts 302°
2026-05-04 00:25 42.94276 -111.70938 33909 ft 428 kts 302°
2026-05-04 00:26 42.97531 -111.77731 33918 ft 427 kts 302°
2026-05-04 00:26 43.00782 -111.84529 33912 ft 427 kts 302°
2026-05-04 00:27 43.04027 -111.91332 33933 ft 427 kts 302°
2026-05-04 00:27 43.07267 -111.98140 33921 ft 427 kts 302°
2026-05-04 00:28 43.10504 -112.04957 33911 ft 427 kts 302°
2026-05-04 00:28 43.13738 -112.11783 33920 ft 427 kts 302°
2026-05-04 00:29 43.16972 -112.18626 33905 ft 428 kts 302°
2026-05-04 00:29 43.20207 -112.25487 33894 ft 429 kts 302°
2026-05-04 00:30 43.23442 -112.32363 33893 ft 429 kts 302°
2026-05-04 00:30 43.26671 -112.39242 33888 ft 429 kts 302°
2026-05-04 00:31 43.29880 -112.46095 33865 ft 430 kts 302°
2026-05-04 00:31 43.33110 -112.53008 33850 ft 430 kts 302°
2026-05-04 00:32 43.36341 -112.59940 33855 ft 431 kts 302°
2026-05-04 00:32 43.39572 -112.66889 33851 ft 432 kts 302°
2026-05-04 00:33 43.44421 -112.77349 33852 ft 433 kts 302°
2026-05-04 00:34 43.47652 -112.84341 33834 ft 434 kts 302°
2026-05-04 00:34 43.50891 -112.91365 33846 ft 435 kts 302°
2026-05-04 00:35 43.54135 -112.98415 33837 ft 436 kts 302°
2026-05-04 00:35 43.57382 -113.05491 33839 ft 437 kts 302°
2026-05-04 00:36 43.60633 -113.12595 33839 ft 439 kts 303°
2026-05-04 00:36 43.63889 -113.19725 33867 ft 441 kts 303°
2026-05-04 00:37 43.67159 -113.26902 33872 ft 442 kts 303°
2026-05-04 00:37 43.70434 -113.34111 33857 ft 444 kts 303°
2026-05-04 00:38 43.73713 -113.41345 33857 ft 444 kts 303°
2026-05-04 00:38 43.76991 -113.48593 33885 ft 444 kts 303°
2026-05-04 00:39 43.80263 -113.55847 33868 ft 445 kts 303°
2026-05-04 00:39 43.83516 -113.63076 33882 ft 445 kts 303°
2026-05-04 00:40 43.86784 -113.70359 33866 ft 445 kts 303°
2026-05-04 00:40 43.90043 -113.77643 33891 ft 445 kts 303°
2026-05-04 00:41 43.93307 -113.84948 33894 ft 446 kts 303°
2026-05-04 00:41 43.96571 -113.92276 33880 ft 446 kts 303°
2026-05-04 00:42 43.99824 -113.99602 33881 ft 447 kts 303°
2026-05-04 00:42 44.02817 -114.07185 33899 ft 448 kts 299°
2026-05-04 00:43 44.05659 -114.14909 33871 ft 449 kts 299°
2026-05-04 00:43 44.08507 -114.22657 33874 ft 450 kts 299°
2026-05-04 00:44 44.11377 -114.30406 33883 ft 451 kts 299°
2026-05-04 00:44 44.14257 -114.38164 33890 ft 451 kts 299°
2026-05-04 00:45 44.17136 -114.45931 33876 ft 451 kts 299°
2026-05-04 00:45 44.20007 -114.53699 33891 ft 451 kts 298°
2026-05-04 00:46 44.22877 -114.61488 33870 ft 452 kts 298°
2026-05-04 00:46 44.25743 -114.69292 33884 ft 452 kts 299°
2026-05-04 00:47 44.28608 -114.77111 33886 ft 453 kts 299°
2026-05-04 00:47 44.31469 -114.84943 33862 ft 453 kts 299°
2026-05-04 00:48 44.34305 -114.92731 33870 ft 453 kts 299°
2026-05-04 00:48 44.37155 -115.00576 33860 ft 452 kts 299°
2026-05-04 00:49 44.39996 -115.08423 33879 ft 452 kts 299°
2026-05-04 00:49 44.42833 -115.16278 33873 ft 452 kts 299°
2026-05-04 00:50 44.45664 -115.24138 33880 ft 452 kts 299°
2026-05-04 00:50 44.48492 -115.32014 33885 ft 453 kts 298°
2026-05-04 00:51 44.51314 -115.39896 33901 ft 452 kts 299°
2026-05-04 00:51 44.54128 -115.47778 33893 ft 453 kts 299°
2026-05-04 00:52 44.56939 -115.55675 33904 ft 453 kts 299°
2026-05-04 00:52 44.59744 -115.63578 33908 ft 452 kts 299°
2026-05-04 00:53 44.62542 -115.71485 33908 ft 452 kts 299°
2026-05-04 00:53 44.65332 -115.79392 33919 ft 452 kts 299°
2026-05-04 00:54 44.68115 -115.87301 33948 ft 451 kts 299°
2026-05-04 00:54 44.70421 -115.93874 33961 ft 452 kts 298°
2026-05-04 00:55 44.73647 -116.03092 33983 ft 452 kts 298°
2026-05-04 00:55 44.76414 -116.11023 33991 ft 452 kts 298°
2026-05-04 00:56 44.79178 -116.18972 33986 ft 452 kts 298°
2026-05-04 00:56 44.81493 -116.25646 33933 ft 453 kts 298°
2026-05-04 00:57 44.84250 -116.33620 33932 ft 453 kts 298°
2026-05-04 00:57 44.87003 -116.41602 33914 ft 453 kts 298°
2026-05-04 00:58 44.89746 -116.49581 33933 ft 453 kts 298°
2026-05-04 00:58 44.92473 -116.57535 33919 ft 453 kts 298°
2026-05-04 00:59 44.95209 -116.65541 33929 ft 453 kts 298°
2026-05-04 00:59 44.97940 -116.73557 33928 ft 453 kts 298°
2026-05-04 01:00 45.00668 -116.81586 33941 ft 453 kts 298°
2026-05-04 01:00 45.03388 -116.89618 33934 ft 453 kts 298°
2026-05-04 01:01 45.06102 -116.97654 33932 ft 453 kts 298°
2026-05-04 01:01 45.08808 -117.05694 33933 ft 452 kts 298°
2026-05-04 01:02 45.11511 -117.13748 33931 ft 453 kts 298°
2026-05-04 01:02 45.14211 -117.21816 33960 ft 453 kts 298°
2026-05-04 01:03 45.16904 -117.29889 33965 ft 453 kts 298°
2026-05-04 01:03 45.19573 -117.37914 33961 ft 453 kts 297°
2026-05-04 01:04 45.22254 -117.46001 33952 ft 453 kts 297°
2026-05-04 01:04 45.24928 -117.54092 33955 ft 453 kts 298°
2026-05-04 01:05 45.27600 -117.62197 33929 ft 453 kts 297°
2026-05-04 01:05 45.30266 -117.70314 33921 ft 453 kts 297°
2026-05-04 01:06 45.32925 -117.78434 33930 ft 453 kts 297°
2026-05-04 01:06 45.35577 -117.86557 33932 ft 453 kts 297°
2026-05-04 01:07 45.38218 -117.94672 33932 ft 452 kts 297°
2026-05-04 01:07 45.40854 -118.02798 33934 ft 452 kts 297°
2026-05-04 01:08 45.43484 -118.10929 33931 ft 452 kts 297°
2026-05-04 01:08 45.46108 -118.19066 33915 ft 452 kts 297°
2026-05-04 01:09 45.48725 -118.27209 33926 ft 452 kts 297°
2026-05-04 01:09 45.51318 -118.35300 33938 ft 452 kts 297°
2026-05-04 01:10 45.53924 -118.43461 33952 ft 452 kts 297°
2026-05-04 01:10 45.56525 -118.51628 33945 ft 453 kts 297°
2026-05-04 01:11 45.59125 -118.59821 33923 ft 453 kts 297°
2026-05-04 01:11 45.61722 -118.68030 33911 ft 454 kts 297°
2026-05-04 01:12 45.64316 -118.76256 33906 ft 454 kts 296°
2026-05-04 01:12 45.66906 -118.84493 33908 ft 454 kts 296°
2026-05-04 01:13 45.69497 -118.92735 33911 ft 454 kts 298°
2026-05-04 01:13 45.71198 -118.96497 33874 ft 447 kts 313°
2026-05-04 01:13 45.73247 -118.99839 33867 ft 447 kts 314°
2026-05-04 01:14 45.77335 -119.06553 33856 ft 447 kts 313°
2026-05-04 01:14 45.81380 -119.13326 33858 ft 448 kts 313°
2026-05-04 01:15 45.85379 -119.20100 33856 ft 448 kts 313°
2026-05-04 01:15 45.89399 -119.26936 33861 ft 448 kts 313°
2026-05-04 01:16 45.93421 -119.33790 33861 ft 448 kts 313°
2026-05-04 01:16 45.97438 -119.40651 33857 ft 448 kts 313°
2026-05-04 01:17 46.01445 -119.47512 33856 ft 448 kts 313°
2026-05-04 01:17 46.05450 -119.54385 33854 ft 448 kts 313°
2026-05-04 01:18 46.09451 -119.61268 33848 ft 448 kts 313°
2026-05-04 01:18 46.13444 -119.68157 33850 ft 448 kts 313°
2026-05-04 01:19 46.17434 -119.75054 33842 ft 448 kts 312°
2026-05-04 01:19 46.21417 -119.81956 33851 ft 447 kts 313°
2026-05-04 01:20 46.25392 -119.88865 33849 ft 447 kts 312°
2026-05-04 01:20 46.29360 -119.95777 33852 ft 447 kts 312°
2026-05-04 01:21 46.33321 -120.02694 33847 ft 446 kts 312°
2026-05-04 01:21 46.35292 -120.06139 33213 ft 456 kts 312°
2026-05-04 01:21 46.37310 -120.09672 32557 ft 455 kts 312°
2026-05-04 01:21 46.39317 -120.13195 31998 ft 450 kts 312°
2026-05-04 01:22 46.41295 -120.16673 31430 ft 446 kts 312°
2026-05-04 01:22 46.43258 -120.20129 30906 ft 442 kts 312°
2026-05-04 01:22 46.45202 -120.23553 30376 ft 438 kts 312°
2026-05-04 01:22 46.47128 -120.26949 29862 ft 434 kts 312°
2026-05-04 01:23 46.49036 -120.30317 29254 ft 430 kts 311°
2026-05-04 01:23 46.50922 -120.33653 28743 ft 425 kts 311°
2026-05-04 01:23 46.52786 -120.36951 28216 ft 420 kts 311°
2026-05-04 01:23 46.54631 -120.40217 27706 ft 416 kts 311°
2026-05-04 01:24 46.56456 -120.43451 27194 ft 412 kts 311°
2026-05-04 01:24 46.58216 -120.46720 26697 ft 409 kts 308°
2026-05-04 01:24 46.59858 -120.50089 26201 ft 406 kts 307°
2026-05-04 01:24 46.61444 -120.53474 25712 ft 403 kts 306°
2026-05-04 01:25 46.63011 -120.56840 25230 ft 401 kts 306°
2026-05-04 01:25 46.64574 -120.60181 24745 ft 398 kts 306°
2026-05-04 01:25 46.66134 -120.63492 24266 ft 395 kts 306°
2026-05-04 01:25 46.67691 -120.66781 23802 ft 393 kts 306°
2026-05-04 01:26 46.69244 -120.70053 23274 ft 392 kts 306°
2026-05-04 01:26 46.70792 -120.73311 22747 ft 390 kts 306°
2026-05-04 01:26 46.72309 -120.76507 22248 ft 387 kts 306°
2026-05-04 01:26 46.73833 -120.79721 21770 ft 384 kts 306°
2026-05-04 01:27 46.75344 -120.82913 21311 ft 381 kts 306°
2026-05-04 01:27 46.76843 -120.86084 20843 ft 379 kts 306°
2026-05-04 01:27 46.78332 -120.89235 20388 ft 376 kts 306°
2026-05-04 01:27 46.79812 -120.92372 19936 ft 374 kts 306°
2026-05-04 01:28 46.81285 -120.95495 19498 ft 373 kts 306°
2026-05-04 01:28 46.82750 -120.98608 19039 ft 371 kts 306°
2026-05-04 01:28 46.84207 -121.01708 18601 ft 369 kts 306°
2026-05-04 01:28 46.85656 -121.04792 18178 ft 367 kts 306°
2026-05-04 01:29 46.87097 -121.07864 17683 ft 366 kts 306°
2026-05-04 01:29 46.88530 -121.10923 17212 ft 364 kts 306°
2026-05-04 01:29 46.89960 -121.13977 16748 ft 361 kts 306°
2026-05-04 01:29 46.91372 -121.16999 16301 ft 359 kts 306°
2026-05-04 01:30 46.92776 -121.20005 15860 ft 356 kts 306°
2026-05-04 01:30 46.94167 -121.22992 15428 ft 354 kts 306°
2026-05-04 01:30 46.95551 -121.25960 14993 ft 352 kts 306°
2026-05-04 01:30 46.96924 -121.28908 14554 ft 350 kts 306°
2026-05-04 01:31 46.98289 -121.31841 14140 ft 347 kts 305°
2026-05-04 01:31 46.99647 -121.34762 13703 ft 346 kts 305°
2026-05-04 01:31 47.01000 -121.37678 13216 ft 346 kts 305°
2026-05-04 01:31 47.02348 -121.40588 12752 ft 344 kts 305°
2026-05-04 01:32 47.03684 -121.43474 12415 ft 339 kts 305°
2026-05-04 01:32 47.04983 -121.46281 12281 ft 328 kts 305°
2026-05-04 01:32 47.06243 -121.49008 12134 ft 318 kts 305°
2026-05-04 01:32 47.07447 -121.51615 12033 ft 307 kts 304°
2026-05-04 01:33 47.08635 -121.54194 11945 ft 296 kts 304°
2026-05-04 01:33 47.09751 -121.56617 11826 ft 287 kts 304°
2026-05-04 01:33 47.10792 -121.59139 11512 ft 285 kts 291°
2026-05-04 01:33 47.11279 -121.61911 11163 ft 285 kts 281°
2026-05-04 01:34 47.11656 -121.64798 10837 ft 284 kts 281°
2026-05-04 01:34 47.12006 -121.67604 10548 ft 282 kts 280°
2026-05-04 01:34 47.12363 -121.70472 10252 ft 281 kts 280°
2026-05-04 01:34 47.12714 -121.73275 9996 ft 277 kts 280°
2026-05-04 01:35 47.13054 -121.75983 9905 ft 262 kts 280°
2026-05-04 01:35 47.13379 -121.78560 9650 ft 254 kts 280°
2026-05-04 01:35 47.13696 -121.81068 9241 ft 253 kts 280°
2026-05-04 01:35 47.14015 -121.83591 8861 ft 250 kts 280°
2026-05-04 01:36 47.14328 -121.86067 8495 ft 244 kts 281°
2026-05-04 01:36 47.14637 -121.88516 7978 ft 244 kts 281°
2026-05-04 01:36 47.14945 -121.90967 7557 ft 244 kts 281°
2026-05-04 01:36 47.15251 -121.93395 7239 ft 240 kts 281°
2026-05-04 01:37 47.15554 -121.95797 6887 ft 238 kts 281°
2026-05-04 01:37 47.15853 -121.98176 6541 ft 235 kts 282°
2026-05-04 01:37 47.16141 -122.00477 6446 ft 222 kts 282°
2026-05-04 01:37 47.16413 -122.02650 6345 ft 210 kts 282°
2026-05-04 01:38 47.16668 -122.04690 6261 ft 196 kts 282°
2026-05-04 01:38 47.16908 -122.06619 6004 ft 190 kts 282°
2026-05-04 01:38 47.17147 -122.08529 5624 ft 191 kts 282°
2026-05-04 01:38 47.17382 -122.10408 5427 ft 180 kts 282°
2026-05-04 01:39 47.17597 -122.12144 5201 ft 169 kts 283°
2026-05-04 01:39 47.17810 -122.13856 4955 ft 175 kts 282°
2026-05-04 01:39 47.18033 -122.15640 4990 ft 176 kts 282°
2026-05-04 01:39 47.18247 -122.17367 4973 ft 169 kts 283°
2026-05-04 01:40 47.18463 -122.19098 5005 ft 176 kts 283°
2026-05-04 01:40 47.18682 -122.20865 4987 ft 174 kts 283°
2026-05-04 01:40 47.18893 -122.22580 4978 ft 172 kts 283°
2026-05-04 01:40 47.19104 -122.24292 4979 ft 169 kts 283°
2026-05-04 01:41 47.19317 -122.26020 4962 ft 176 kts 283°
2026-05-04 01:41 47.19539 -122.27801 4851 ft 177 kts 285°
2026-05-04 01:41 47.20071 -122.29395 4733 ft 169 kts 310°
2026-05-04 01:41 47.20864 -122.30601 4611 ft 166 kts 323°
2026-05-04 01:42 47.21824 -122.31517 4514 ft 165 kts 336°
2026-05-04 01:42 47.22915 -122.31989 4385 ft 165 kts 359°
2026-05-04 01:42 47.24081 -122.31949 4167 ft 169 kts
2026-05-04 01:42 47.25236 -122.31950 3928 ft 161 kts
2026-05-04 01:43 47.26305 -122.31949 3742 ft 151 kts
2026-05-04 01:43 47.27353 -122.31942 3561 ft 153 kts
2026-05-04 01:43 47.28418 -122.31935 3363 ft 154 kts
2026-05-04 01:43 47.29485 -122.31928 3173 ft 154 kts
2026-05-04 01:44 47.30547 -122.31918 2971 ft 150 kts
2026-05-04 01:44 47.31586 -122.31910 2775 ft 150 kts
2026-05-04 01:44 47.32285 -122.31905 2657 ft 153 kts
2026-05-04 01:44 47.33345 -122.31895 2444 ft 150 kts
2026-05-04 01:45 47.34374 -122.31887 2249 ft 148 kts 360°
2026-05-04 01:45 47.35403 -122.31878 2063 ft 149 kts 360°
2026-05-04 01:45 47.37463 -122.31861 1687 ft 145 kts 359°
2026-05-04 01:46 47.38476 -122.31853 1498 ft 145 kts
2026-05-04 01:46 47.39501 -122.31845 1300 ft 149 kts
2026-05-04 01:46 47.40551 -122.31835 1084 ft 153 kts 360°
2026-05-04 01:46 47.41622 -122.31828 897 ft 153 kts 360°
2026-05-04 01:47 47.42666 -122.31817 656 ft 147 kts
2026-05-04 01:47 47.43664 -122.31814 447 ft 142 kts 360°
2026-05-04 01:47 47.44632 -122.31803 383 ft 129 kts
2026-05-04 01:47 47.45318 -122.31797 395 ft 68 kts
2026-05-04 01:48 47.45609 -122.31795 403 ft 29 kts
2026-05-04 01:48 47.45798 -122.31753 412 ft 27 kts 16°
2026-05-04 01:48 47.45957 -122.31621 408 ft 26 kts 47°
2026-05-04 01:48 47.46012 -122.31385 420 ft 24 kts 88°
2026-05-04 01:49 47.46012 -122.31141 432 ft 25 kts 90°
2026-05-04 01:49 47.46011 -122.30872 434 ft 26 kts 90°
2026-05-04 01:49 47.46006 -122.30669 425 ft 14 kts 109°
2026-05-04 01:49 47.45922 -122.30620 434 ft 16 kts 179°
2026-05-04 01:50 47.45779 -122.30621 426 ft 25 kts 180°
2026-05-04 01:50 47.45591 -122.30622 425 ft 28 kts 180°
2026-05-04 01:50 47.45399 -122.30625 421 ft 27 kts 180°
2026-05-04 01:50 47.45213 -122.30625 413 ft 27 kts 180°
2026-05-04 01:51 47.45062 -122.30613 411 ft 14 kts 147°
2026-05-04 01:51 47.45044 -122.30455 413 ft 19 kts 91°
2026-05-04 01:51 47.45027 -122.30271 407 ft 18 kts 123°
2026-05-04 01:51 47.44971 -122.30211 409 ft 7 kts 205°
2026-05-04 01:52 47.44941 -122.30245 404 ft 0 kts 220°
2026-05-04 02:01 47.44941 -122.30244 418 ft 0 kts 220°
2026-05-04 02:04 47.44942 -122.30244 418 ft 0 kts 220°